Location: Bakhuizen
(52.8696°N, 5.4575°E)
Time: 04:19:34
(UTC+00:00)

Nimbus 7 Rocket - Pass Details

Date: 30 September 2021
Orbit: 922 x 965 km, 99.4° (Epoch: 17 October)

Event Time Altitude Azimuth Distance (km) Brightness Sun altitude
Rises 22:08:32 0° 25° (NNE) 3,589 7.9 -37.7°
Reaches altitude 10° 22:11:36 10° 40° (NE) 2,646 7.0 -37.8°
Enters shadow 22:12:11 12° 45° (NE) 2,493 6.8 -37.9°
